OBJECT B, 61870

Orbit data source: Space-Track

You're viewing an Uncataloged Satellite

Recently launched and/or uncataloged satellites may have evolving metadata. Metadata may include but not limited to: Owner, Maufacturer, Bus, Motor, and Mission.

OBJECT B, 61870 is a satellite owned by Hangtian Hongtu (CN) in SSO that was launched on Sat, 09 Nov 2024 UTC via a CHANG ZHENG 2C launch vehicle from the Jiuquan Satellite Launch Center, China (JSC). Unknown objects in Earth's orbit typically refer to objects detected orbiting the Earth but have not yet been identified or cataloged. These objects could be anything from previously untracked satellites, spent rocket stages, debris from satellite collisions, or even natural meteoroids temporarily captured by Earth's gravity.

Loading next visibility...
OBJECT B details
Identifier
61870, 2024-203B
Orbit
SSO
Last TLE update12 hours ago
Origin
Flag of CNHangtian Hongtu (CN / PRC)
ManufacturerYinhe
MissionOperational spacecraft
Bus & MotorPIESAT, Unknown motor
Mass270 kg wet, 270 kg dry
Launch date (UTC)
2024-11-09 (1 month ago)
Launch vehicle
CHANG ZHENG 2C
Launch site
Jiuquan Satellite Launch Center, China (JSC)
Object typeUnknown
Shape & HBRUnknown
Radar Cross SectionLarge (>1 m²)

Expand to show TLE details & history

TLE from 12 hours ago
0 OBJECT B
1 61870U 24203B   24348.43297571  .00011087  00000-0  60190-3 0  9998
2 61870  97.4886  52.6650 0017358  97.1687 263.1519 15.14570921  5188
Epoch: 2024-12-13T10:23Z
Definitive object data (Epoch: 2024-12-13T10:23:29.101Z)
Latitude-0.00003°
Longitude174.19472°
Altitude526.811 km
Speed7.599 km/s
True Right ascension03h 30m 39s
True Declination0° 00' 00"
Sunlit
Object was in full shadow at TLE epoch
Visualization TLE readout
Latitude33.84879°
Longitude-0.29394°
Altitude519.152 km
Speed7.611 km/s
Apparent Right ascension12h 41m 00s
Apparent Declination-2° 16' 35"
Sunlit
Object is in daylight
Visualization observer readout
Local Sidereal Time20:39:43
Azimuth288.294° WNW
Elevation-23.888°
Doppler factor1
Orbital elements
Apogee altitude531.231 km
Perigee altitude507.286 km
Semi-major axis6,897.395 km
Eccentricity0.0017358
Inclination97.4886°
RAAN52.665°
Arg. of periapsis97.1687°
True anomaly262.95446°
Mean anomaly263.1519°
Eccentric anomaly263.05318°
Mean motion3.78892 °/min
BSTAR0.0006019
Orbital period95.01 mins
Loading maneuver chart data...
Loading historical data...
Loading historical data...
Loading historical data...
Loading historical data...
Loading historical data...
Loading historical data...
Loading historical data...
Other satellites on launch #203 in the year 2024 (2024-11-09 UTC)

OBJECT B Visibility forecast

Observer location: undefined°, undefined

Span
Click to sort rows by Start time (UTC) header in descending order
Start Az.
Max El. time (UTC)
Max El. Az.
Max El.
End time (UTC)
End Az.
6 mins2024-12-14 03:57:52.146Z134.024° SE2024-12-14 04:00:52.146Z78.375° E27.355°2024-12-14 04:03:52.146Z12.84° NNE
5 mins2024-12-14 17:05:52.146Z31.634° NE2024-12-14 17:07:52.146Z89.457° E37.627°2024-12-14 17:10:52.146Z173.01° S
|